GW2438 Weather Reports


time (UTC)temp
F
wind
direction
speed
knots
gust
knots
rain 1hr
in
rain 24hr
in
rain mn
in
humidity
%
barometer
mb
20260509185619 63 2 3.5 5.2 0.00 0.00 0.00 61 1020.9
20260509184618 63 351 3.5 7.0 0.00 0.00 0.00 62 1020.9
20260509183556 62 359 3.5 6.1 0.00 0.00 0.00 66 1020.9
20260509182554 62 8 3.5 7.8 0.00 0.00 0.00 66 1020.9
20260509181612 62 1 4.3 7.0 0.00 0.00 0.00 66 1020.9
20260509180611 62 2 3.5 7.0 0.00 0.00 0.00 68 1021.0
20260509175608 62 340 0.9 3.5 0.00 0.00 0.00 69 1021.1
20260509174547 61 10 3.5 6.1 0.00 0.00 0.00 70 1021.2
20260509173545 61 1 2.6 5.2 0.00 0.00 0.00 69 1021.2
20260509172604 61 10 2.6 5.2 0.00 0.00 0.00 70 1021.3
20260509171622 60 345 1.7 2.6 0.00 0.00 0.00 70 1021.3
20260509170540 60 15 0.9 2.6 0.00 0.00 0.00 72 1021.3
20260509165538 60 5 2.6 5.2 0.00 0.00 0.00 74 1021.3
20260509164537 59 355 2.6 6.1 0.00 0.00 0.00 72 1021.5
20260509163535 60 4 2.6 5.2 0.00 0.00 0.00 72 1021.7
20260509162533 60 11 1.7 7.0 0.00 0.00 0.00 71 1021.6
20260509161551 61 21 0.9 2.6 0.00 0.00 0.00 70 1021.7
20260509160550 60 35 0.9 1.7 0.00 0.00 0.00 70 1021.7
20260509155528 61 72 0.9 0.9 0.00 0.00 0.00 69 1021.9
20260509154546 63 57 0.9 2.6 0.00 0.00 0.00 65 1022.1
20260509153524 65 96 0.9 2.6 0.00 0.00 0.00 63 1022.2
20260509152523 67 121 0.0 0.9 0.00 0.00 0.00 61 1022.1
20260509151521 71 99 0.9 2.6 0.00 0.00 0.00 58 1022.1
20260509150519 72 156 0.9 1.7 0.00 0.00 0.00 63 1022.2
20260509145518 69 168 0.9 1.7 0.00 0.00 0.00 69 1022.4
20260509144516 64 192 0.9 1.7 0.00 0.00 0.00 76 1022.4
20260509143614 59 194 0.0 0.9 0.00 0.00 0.00 89 1022.4
20260509142613 52 193 0.0 0.9 0.00 0.00 0.00 91 1022.4
20260509141611 51 195 0.9 1.7 0.00 0.00 0.00 91 1022.4
20260509140609 49 250 0.9 1.7 0.00 0.00 0.00 91 1022.5
20260509135608 48 251 0.9 1.7 0.00 0.00 0.00 91 1022.5
20260509134606 48 251 0.0 0.9 0.00 0.00 0.00 91 1022.6
20260509133704 47 0.0 0.0 0.00 0.00 0.00 90 1022.6
20260509132623 47 0.0 0.0 0.00 0.00 0.00 90 1022.7
20260509131601 47 0.0 0.0 0.00 0.00 0.00 90 1022.7
20260509130619 47 0.0 0.0 0.00 0.00 0.00 90 1022.7
20260509125557 46 0.0 0.0 0.00 0.00 0.00 90 1022.6
20260509124615 46 0.0 0.0 0.00 0.00 0.00 89 1022.6
20260509123554 46 0.0 0.0 0.00 0.00 0.00 89 1022.6
20260509122552 46 0.0 0.0 0.00 0.00 0.00 88 1022.5
20260509121550 47 0.0 0.0 0.00 0.00 0.00 88 1022.5
20260509120549 47 0.0 0.0 0.00 0.00 0.00 88 1022.7
20260509115547 48 0.0 0.0 0.00 0.00 0.00 88 1022.9
20260509114546 48 0.0 0.0 0.00 0.00 0.00 88 1022.7
20260509113544 47 0.0 0.0 0.00 0.00 0.00 87 1022.7
20260509112542 48 0.0 0.0 0.00 0.00 0.00 87 1022.7
20260509111540 48 0.0 0.0 0.00 0.00 0.00 87 1022.7
20260509110558 48 0.0 0.0 0.00 0.00 0.00 87 1022.8
20260509105537 48 0.0 0.0 0.00 0.00 0.00 86 1022.9
20260509104555 48 0.0 0.0 0.00 0.00 0.00 85 1022.9
20260509103533 49 0.0 0.0 0.00 0.00 0.00 84 1022.9
20260509102531 49 0.0 0.0 0.00 0.00 0.00 84 1022.8
20260509101530 50 0.0 0.0 0.00 0.00 0.00 83 1023.1
20260509100528 51 0.0 0.0 0.00 0.00 0.00 83 1023.0
20260509095526 51 0.0 0.0 0.00 0.00 0.00 83 1023.1
20260509094525 51 0.0 0.0 0.00 0.00 0.00 83 1023.2
20260509093543 51 0.0 0.0 0.00 0.00 0.00 81 1023.2
20260509092521 52 251 0.0 0.9 0.00 0.00 0.00 81 1023.3
20260509091540 52 251 0.0 0.9 0.00 0.00 0.00 81 1023.3
20260509090518 53 251 0.0 0.9 0.00 0.00 0.00 81 1023.4
20260509085516 53 244 0.9 0.9 0.00 0.00 0.00 82 1023.3
20260509084614 53 239 1.7 3.5 0.00 0.00 0.00 82 1023.4
20260509083617 53 229 0.9 2.6 0.00 0.00 0.00 82 1023.5
20260509082611 53 237 0.9 1.7 0.00 0.00 0.00 82 1023.4
20260509081609 53 237 0.9 1.7 0.00 0.00 0.00 82 1023.5
20260509080608 53 236 0.9 1.7 0.00 0.00 0.00 82 1023.4
20260509075606 52 225 0.9 2.6 0.00 0.00 0.00 82 1023.3
20260509074604 52 223 0.9 0.9 0.00 0.00 0.00 82 1023.2
20260509073622 52 231 0.9 1.7 0.00 0.00 0.00 82 1023.3
20260509072601 52 216 0.9 0.9 0.00 0.00 0.00 82 1023.3
20260509071559 52 229 0.9 1.7 0.00 0.00 0.00 82 1023.2
20260509070557 52 232 0.9 1.7 0.00 0.00 0.00 82 1023.2
20260509065555 51 235 0.0 0.9 0.00 0.00 0.00 81 1023.3
20260509064634 52 0.0 0.0 0.00 0.00 0.00 81 1023.2
20260509063551 52 209 0.0 0.9 0.00 0.00 0.00 81 1023.2
20260509062550 52 216 0.0 0.9 0.00 0.00 0.00 81 1023.2
20260509061548 52 0.0 0.0 0.00 0.00 0.00 80 1023.1
20260509060546 52 213 0.9 1.7 0.00 0.00 0.00 80 1023.0
20260509055545 52 237 0.9 1.7 0.00 0.00 0.00 79 1023.0
20260509054543 52 224 0.9 1.7 0.00 0.00 0.00 79 1022.9
20260509053542 52 228 1.7 2.6 0.00 0.00 0.00 78 1022.8
20260509052539 52 218 1.7 2.6 0.00 0.00 0.00 77 1022.9
20260509051538 52 232 1.7 3.5 0.00 0.00 0.00 76 1022.8
20260509050536 53 238 1.7 3.5 0.00 0.00 0.00 75 1022.8
20260509045534 53 244 1.7 2.6 0.00 0.00 0.00 75 1022.8
20260509044533 54 242 1.7 2.6 0.00 0.00 0.00 75 1022.8
20260509043531 54 236 2.6 5.2 0.00 0.00 0.00 74 1022.8
20260509042529 54 240 2.6 5.2 0.00 0.00 0.00 73 1022.8
20260509041547 55 251 1.7 5.2 0.00 0.00 0.00 72 1022.6
20260509040526 55 238 1.7 5.2 0.00 0.00 0.00 72 1022.5
20260509035524 55 262 1.7 6.1 0.00 0.00 0.00 71 1022.4
20260509034523 56 259 2.6 6.1 0.00 0.00 0.00 70 1022.3
20260509033521 56 257 1.7 5.2 0.00 0.00 0.00 69 1022.2
20260509032519 57 246 0.9 2.6 0.00 0.00 0.00 67 1022.2
20260509031517 58 244 0.9 2.6 0.00 0.00 0.00 66 1022.1
20260509030515 58 252 2.6 6.1 0.00 0.00 0.00 64 1022.2
20260509025614 59 249 1.7 3.5 0.00 0.00 0.00 63 1022.0
20260509024653 60 265 1.7 6.1 0.00 0.00 0.00 63 1021.8
20260509023613 60 260 2.6 6.1 0.00 0.00 0.00 62 1021.7
20260509022709 61 270 1.7 3.5 0.00 0.00 0.00 61 1021.8
20260509021607 61 284 3.5 8.7 0.00 0.00 0.00 60 1021.6
20260509020605 61 264 0.9 5.2 0.00 0.00 0.00 60 1021.6
20260509015606 62 268 2.6 3.5 0.00 0.00 0.00 59 1021.7
20260509014622 62 279 2.6 7.0 0.00 0.00 0.00 58 1021.7
20260509013600 63 260 2.6 7.0 0.00 0.00 0.00 56 1021.7
20260509012559 63 261 1.7 5.2 0.00 0.00 0.00 55 1021.6
20260509011557 64 225 1.7 3.5 0.00 0.00 0.00 55 1021.6
20260509010555 64 249 2.6 5.2 0.00 0.00 0.00 55 1021.7
20260509005553 64 262 2.6 7.0 0.00 0.00 0.00 54 1021.9
20260509004552 64 243 3.5 8.7 0.00 0.00 0.00 54 1021.7
20260509003550 64 247 2.6 7.0 0.00 0.00 0.00 54 1021.8
20260509002548 64 240 6.1 9.6 0.00 0.00 0.00 54 1021.7
20260509001547 64 260 3.5 7.0 0.00 0.00 0.00 53 1021.7
20260509000545 65 288 3.5 9.6 0.00 0.00 0.00 52 1021.6
20260508235543 65 254 3.5 6.1 0.00 0.00 0.00 53 1021.6
20260508234542 64 274 1.7 5.2 0.00 0.00 0.00 52 1021.6
20260508233620 64 260 3.5 7.0 0.00 0.00 0.00 52 1021.6
20260508232538 65 242 3.5 8.7 0.00 0.00 0.00 53 1021.6
20260508231536 64 253 5.2 9.6 0.00 0.00 0.00 53 1021.5
20260508230535 65 245 3.5 7.8 0.00 0.00 0.00 52 1021.6
20260508225535 65 267 1.7 5.2 0.00 0.00 0.00 52 1021.6
20260508224531 66 251 4.3 7.0 0.00 0.00 0.00 51 1021.6
20260508223529 67 258 2.6 6.1 0.00 0.00 0.00 50 1021.6
20260508222528 66 223 4.3 8.7 0.00 0.00 0.00 50 1021.7
20260508221526 66 212 3.5 7.8 0.00 0.00 0.00 50 1021.5
20260508220525 66 188 5.2 7.8 0.00 0.00 0.00 51 1021.5
20260508215523 66 256 3.5 7.0 0.00 0.00 0.00 50 1021.6
20260508214541 66 236 3.5 7.0 0.00 0.00 0.00 49 1021.7
20260508213519 66 218 4.3 13.0 0.00 0.00 0.00 49 1021.8
20260508212517 67 228 6.1 11.3 0.00 0.00 0.00 48 1021.8
20260508211516 67 232 3.5 11.3 0.00 0.00 0.00 50 1021.7
20260508210634 68 241 3.5 6.1 0.00 0.00 0.00 50 1021.7
20260508205633 67 226 4.3 7.0 0.00 0.00 0.00 50 1021.6
20260508204611 66 201 3.5 7.8 0.00 0.00 0.00 52 1021.5
20260508203629 65 223 5.2 12.2 0.00 0.00 0.00 51 1021.5
20260508202627 65 229 5.2 11.3 0.00 0.00 0.00 52 1021.4
20260508201606 65 226 3.5 6.1 0.00 0.00 0.00 53 1021.6
20260508200604 66 244 4.3 11.3 0.00 0.00 0.00 52 1021.5
20260508195602 65 201 4.3 7.0 0.00 0.00 0.00 53 1021.5
20260508194600 65 256 4.3 7.8 0.00 0.00 0.00 52 1021.4
20260508193600 65 232 5.2 11.3 0.00 0.00 0.00 52 1021.4
20260508192557 64 240 4.3 7.8 0.00 0.00 0.00 54 1021.5
20260508191555 63 226 4.3 8.7 0.00 0.00 0.00 55 1021.4
20260508190614 62 201 5.2 9.6 0.00 0.00 0.00 55 1021.6